weather.gov     
National Weather Service

Regional Weather Roundup
NWS Homepage
This page is being discontinued on March 12, 2014.
The same data is available at this site. Please update your bookmarks.
Thank you, and we apologize for the inconvenience.
Please send an email to SR-SRH.Webmaster@noaa.gov with any concerns.


Current Version
Previous Version:    01  02  03  04  05  06  07  08  09  10  11  12  13  14  15  16  17  18  19  20  21  22  23  24  25  26  
[Printable]
159
ASUS42 KTBW 231810
RWRFL
FLORIDA REGIONAL WEATHER ROUNDUP
NATIONAL WEATHER SERVICE TAMPA BAY RUSKIN FL
200 PM EDT THU OCT 23 2014

NOTE: "FAIR" INDICATES FEW OR NO CLOUDS BELOW 12,000 FEET WITH NO
SIGNIFICANT WEATHER AND/OR OBSTRUCTIONS TO VISIBILITY.


FLZ001>010-012>015-112-114-115-231900-
PANHANDLE FLORIDA

CITY           SKY/WX    TMP DP  RH WIND       PRES   REMARKS
PENSACOLA      SUNNY     72  42  34 VRB7      30.06F
PENSACOLA NAS  MOSUNNY   71  45  39 SE8       30.06F
MILTON NAS     MOSUNNY   72  44  36 CALM      30.07F
CRESTVIEW      SUNNY     74  46  36 VRB5      30.09F
DUKE FIELD     MOSUNNY   73  42  33 N6        30.05F
VALPARAISO     MOSUNNY   72  47  41 SE7       30.06F
MARY ESTHER    SUNNY     72  41  32 CALM      30.05F
PANAMA CITY    FAIR      74  44  34 VRB5      30.04F
TYNDALL AFB    SUNNY     72  48  42 VRB5      30.04F
APALACHICOLA   SUNNY     77  43  29 NE7       30.03F

STATION/POSITION SKY/WX   TEMP    WIND        PRES    WAVE   SWELL
                          AIR SEA DIR/SP/G            HT/PER HT/PER
                          (F)     (DEG/KT/KT) (MB)    (FT/S) (FT/S)
30.1N   87.6W              69 78   60/ 12/ 16 1017.8F   3/ 6   2/ 6
29.2N   88.2W              72 80   60/ 12/ 16 1018.0F   4/ 6
28.8N   86.0W              72 80   70/ 16/ 19 1016.4F   4/ 6
PANAMA CITY BEAC           69 77   30/  8/ 10 1017.4F
CAPE SAN BLAS    NOT AVBL
TOWER C                    68      50/ 16/ 17 1016.8F
28.5N   84.5W              71 81   60/ 14/ 17 1015.8F   4/ 6

$$
FLZ011-016>038-118-127-128-134-139-239-231900-
NORTH FLORIDA

CITY           SKY/WX    TMP DP  RH WIND       PRES   REMARKS
MARIANNA       SUNNY     72  45  37 CALM      30.06F
TALLAHASSEE    SUNNY     74  40  29 E7        30.04F
PERRY          SUNNY     72  41  33 E6        30.04F
CROSS CITY       N/A     76  48  37 NE7       30.02F
LAKE CITY      FAIR      72  50  46 NE8       30.02F
GAINESVILLE    SUNNY     74  49  41 E8        30.01F
MAYPORT NAS    MOSUNNY   73  52  47 N9        30.04F
JACKSONVILLE   MOSUNNY   72  47  40 E8        30.03F
JAX NAS        MOSUNNY   75  49  39 E8        30.03F
JAX CRAIG      MOSUNNY   72  52  49 N10       30.04F
JAX CECIL      MOSUNNY   73  54  49 NE8       30.03F
FERNANDINA BEA FAIR      75  52  43 NE7       30.03F
ST AUGUSTINE   PTSUNNY   74  56  53 NE13      30.03F

STATION/POSITION SKY/WX   TEMP    WIND        PRES    WAVE   SWELL
                          AIR SEA DIR/SP/G            HT/PER HT/PER
                          (F)     (DEG/KT/KT) (MB)    (FT/S) (FT/S)
SHELL POINT                70      90/  4/  7   N/A
KEATON BEACH               71      60/  7/ 12 1016.7F
CEDAR KEY                  70      70/  9/ 11 1017.4F
FERNANDINA                 68 74   20/  7/ 12 1016.9F
30.7N   81.3W                 76                N/A     3/ 5
MAYPORT                    68 76   30/ 10/ 14   N/A
31.4N   80.9W              64 75  350/  8/ 12 1017.7F   2/ 6   2/ 6
ST AUGUSTINE               70      20/  7/  9 1017.4F

$$
FLZ040-043>046-052-053-057-058-063-144-231900-
INTERIOR CENTRAL FLORIDA

CITY           SKY/WX    TMP DP  RH WIND       PRES   REMARKS
OCALA          SUNNY     75  50  41 NE9       30.01F
THE VILLAGES     N/A     77  54  44 N7        29.90F
LEESBURG       SUNNY     79  53  40 E12       30.00F
ORLANDO EXEC   MOSUNNY   80  58  46 E12       29.98F
ORLANDO INTL   MOSUNNY   81  55  40 NE6       29.98F
KISSIMMEE      SUNNY     81  57  44 NE7G18    29.98F
WINTER HAVEN   SUNNY     82  56  40 NE10      29.98F
LAKELAND       SUNNY     81  57  44 E7        29.97F
BARTOW         MOSUNNY   81  55  41 NE8       29.97F
OKEECHOBEE     MOSUNNY   79  63  57 MISG      29.94F

$$
FLZ041-047-054-059-064-141-147-231900-
EAST CENTRAL FLORIDA

CITY           SKY/WX    TMP DP  RH WIND       PRES   REMARKS
ORMOND BEACH   MOSUNNY   73  55  53 NE12      30.01F
DAYTONA BEACH  MOSUNNY   76  56  49 N8        30.01F
DELAND         PTCLDY    75  54  46 NE8       30.00F
NEW SMYRNA BEA MOSUNNY   77  57  50 N12       30.01F
JFK SPACE CTR  MOSUNNY   78  57  49 NE9       29.98F
TITUSVILLE     MOSUNNY   79  57  47 NE12      29.99F
CAPE CANAVERAL SUNNY     78  57  48 NE9       29.97F
PATRICK AFB    SUNNY     79  60  52 NE13      29.97F
MELBOURNE      MOSUNNY   81  59  47 NE15      29.97F
VERO BEACH     MOSUNNY   77  56  48 NE12      29.96F
FT PIERCE      MOSUNNY   80  62  54 NE9       29.94F
STUART         MOSUNNY   77  63  61 NE15      29.98S

STATION/POSITION SKY/WX   TEMP    WIND        PRES    WAVE   SWELL
                          AIR SEA DIR/SP/G            HT/PER HT/PER
                          (F)     (DEG/KT/KT) (MB)    (FT/S) (FT/S)
28.5N   80.2W              74 81   30/ 10/ 14 1015.8F
28.9N   78.5W              74 81   20/  8/ 16 1015.2F   4/ 8   3/ 8
TRIDENT PIER               79 80   50/ 10/ 14 1014.8F
28.4N   80.5W                 79                N/A     2/10
27.6N   80.2W                 80                N/A     3/ 8

$$
FLZ050-056-061-142-242-148-248-149-249-151-251-155-255-
160-260-231900-
WEST CENTRAL FLORIDA

CITY           SKY/WX    TMP DP  RH WIND       PRES   REMARKS
CRYSTAL RIVER  FAIR      77  48  36 E7        29.99F
INVERNESS      FAIR      79  50  36 NE9       30.00F
BROOKSVILLE    SUNNY     79  55  43 NE9       29.99F
ZEPHYRHILLS    FAIR      81  52  36 NE8       29.98F
CLEARWATER     SUNNY     80  61  52 NE6       29.96F
TAMPA INTL     MOSUNNY   81  56  42 VRB6      29.96F
TAMPA EXEC     SUNNY     82  57  42 NE8       29.97F
PLANT CITY     SUNNY     82  52  34 NE7       29.98F
MACDILL AFB    SUNNY     83  63  51 E9        29.96F
ST PETERSBURG  SUNNY     79  62  56 E10       29.95F
SARASOTA       SUNNY     82  62  50 NE9       29.93F
VENICE           N/A     82  64  54 MISG      29.93F

STATION/POSITION SKY/WX   TEMP    WIND        PRES    WAVE   SWELL
                          AIR SEA DIR/SP/G            HT/PER HT/PER
                          (F)     (DEG/KT/KT) (MB)    (FT/S) (FT/S)
CEDAR KEY                  70      70/  9/ 11 1017.4F
28.5N   84.5W              71 81   60/ 14/ 17 1015.8F   4/ 6
27.3N   84.3W                 82                N/A     5/ 6
CLEARWATER BEACH NOT AVBL
MIDDLE TAMPA BAY           76      50/ 11/ 13 1014.8F
VENICE                     81 80   30/ 11/ 13 1012.9F

$$
FLZ066-069-070-075>078-162-262-165-265-231900-
SOUTHWEST FLORIDA AND KEYS

CITY           SKY/WX    TMP DP  RH WIND       PRES   REMARKS
PUNTA GORDA    CLOUDY    82  66  58 NE13      29.94F
FT MYERS       MOSUNNY   83  67  58 E13       29.90F
SOUTHWEST INTL MOSUNNY   82  66  58 E16G23    29.91F
NAPLES         MOSUNNY   83  70  64 NE20      29.88F
MARATHON       RAIN      77  76  96 SE9       29.85F FOG
KEY WEST NAS   LGT RAIN  78  74  87 NE14G22   29.85F
KEY WEST INTL  CLOUDY    78  76  93 NE8G23    29.86F

STATION/POSITION SKY/WX   TEMP    WIND        PRES    WAVE   SWELL
                          AIR SEA DIR/SP/G            HT/PER HT/PER
                          (F)     (DEG/KT/KT) (MB)    (FT/S) (FT/S)
VENICE                     81 80   30/ 11/ 13 1012.9F
NAPLES                     81 83   90/  6/ 15 1012.8F
26.0N   85.6W              79 82   50/ 19/ 21 1013.9F   7/ 7
DRY TORTUGAS               80      70/ 21/ 22 1011.4F
NW FL BAY                  77      70/  9/ 11 1012.9F
SAND KEY                   75     100/ 19/ 23 1011.1F
SOMBRERO KEY               79     120/ 18/ 19 1011.1F
LONG KEY                   78 79   50/ 14/ 15 1012.5F
MOLASSES REEF              75 83  140/ 13/ 14 1011.5F

$$
FLZ067-068-071>074-168-172>174-231900-
SOUTHEAST FLORIDA

CITY           SKY/WX    TMP DP  RH WIND       PRES   REMARKS
W PALM BEACH   CLOUDY    79  66  64 NE15G22   29.91F
FT LAUDER-EXEC HVY RAIN  74  71  91 NE12      29.91F VSB 1
FT LAUDERDALE  CLOUDY    79  73  82 NE13      29.90F
POMPANO BEACH  LGT RAIN  74  72  93 N10       29.92F FOG
PEMBROKE PINES PTSUNNY   79  72  79 N20       29.91F
OPA LOCKA      PTSUNNY   79  72  79 NE15G22   29.90F
MIAMI          LGT RAIN  78  72  81 NE14G22   29.89F
WEST KENDALL   MOSUNNY   85  71  63 E8        29.88F
HOMESTEAD      PTSUNNY   81  71  70 NE15      29.88F

STATION/POSITION SKY/WX   TEMP    WIND        PRES    WAVE   SWELL
                          AIR SEA DIR/SP/G            HT/PER HT/PER
                          (F)     (DEG/KT/KT) (MB)    (FT/S) (FT/S)
PORT EVERGLADES            75      50/  8/ 20 1012.7
VIRGINIA KEY               79 81   70/  8/ 10 1012.4F
LAKE WORTH                 78 81   30/ 18/ 21 1012.9F
FOWEY ROCKS                79 80   40/ 10/ 12 1012.0F
SETTLEMENT POINT           77      40/ 16/ 19 1013.7F

$$





U.S. Dept. of Commerce
NOAA National Weather Service
1325 East West Highway
Silver Spring, MD 20910
E-mail: w-nws.webmaster@noaa.gov
Page last modified: May 16, 2007
NATIONAL WEATHER SERVICE: for Safety, for Work, for Fun - FOR LIFE